TimeCST,TemperatureF,Dew PointF,Humidity,Sea Level PressureIn,VisibilityMPH,Wind Direction,Wind SpeedMPH,Gust SpeedMPH,PrecipitationIn,Events,Conditions,WindDirDegrees,DateUTC
12:15 AM,39.4,39.4,100,30.21,1.2,Calm,Calm,-,N/A,,Mist,0,2012-11-22 06:15:00
12:35 AM,39.2,38.8,99,30.21,7.0,Calm,Calm,-,N/A,,Clear,0,2012-11-22 06:35:00
12:55 AM,39.6,39.6,100,30.21,5.0,Calm,Calm,-,N/A,,Clear,0,2012-11-22 06:55:00
1:15 AM,40.1,40.1,100,30.21,0.5,Calm,Calm,-,N/A,Fog,Fog,0,2012-11-22 07:15:00
1:35 AM,39.7,39.7,100,30.21,0.8,Calm,Calm,-,N/A,,Mostly Cloudy,0,2012-11-22 07:35:00
1:55 AM,37.4,37.4,100,30.21,7.0,Calm,Calm,-,N/A,,Clear,0,2012-11-22 07:55:00
2:15 AM,38.3,38.3,100,30.22,7.0,Calm,Calm,-,N/A,,Clear,0,2012-11-22 08:15:00
2:35 AM,39.4,39.4,100,30.22,0.5,SW,3.5,-,N/A,Fog,Fog,220,2012-11-22 08:35:00
2:55 AM,37.2,37.2,100,30.21,7.0,Calm,Calm,-,N/A,,Clear,0,2012-11-22 08:55:00
3:15 AM,36.7,36.7,100,30.21,7.0,Calm,Calm,-,N/A,,Clear,0,2012-11-22 09:15:00
3:35 AM,36.3,36.1,99,30.21,7.0,Calm,Calm,-,N/A,,Clear,0,2012-11-22 09:35:00
3:55 AM,37.2,37.2,100,30.21,5.0,Calm,Calm,-,N/A,,Clear,0,2012-11-22 09:55:00
4:15 AM,35.8,35.4,99,30.21,7.0,Calm,Calm,-,N/A,,Clear,0,2012-11-22 10:15:00
4:35 AM,35.6,35.6,100,30.21,7.0,Calm,Calm,-,N/A,,Clear,0,2012-11-22 10:35:00
4:55 AM,36.7,36.7,100,30.21,7.0,Calm,Calm,-,N/A,,Clear,0,2012-11-22 10:55:00
5:15 AM,35.4,35.4,100,30.21,2.5,Calm,Calm,-,N/A,,Clear,0,2012-11-22 11:15:00
5:35 AM,35.8,35.8,100,30.21,3.0,Calm,Calm,-,N/A,,Clear,0,2012-11-22 11:35:00
5:55 AM,35.4,35.4,100,30.21,7.0,Calm,Calm,-,N/A,,Clear,0,2012-11-22 11:55:00
6:15 AM,37.0,37.0,100,30.21,2.5,Calm,Calm,-,N/A,,Clear,0,2012-11-22 12:15:00
6:35 AM,34.5,34.5,100,30.21,7.0,Calm,Calm,-,N/A,,Clear,0,2012-11-22 12:35:00
6:55 AM,34.5,34.5,100,30.21,7.0,Calm,Calm,-,N/A,,Clear,0,2012-11-22 12:55:00
7:15 AM,34.3,34.3,100,30.21,5.0,Calm,Calm,-,N/A,,Clear,0,2012-11-22 13:15:00
7:35 AM,36.0,36.0,100,30.21,5.0,Calm,Calm,-,N/A,,Clear,0,2012-11-22 13:35:00
7:55 AM,40.8,40.8,100,30.21,4.0,Calm,Calm,-,N/A,,Clear,0,2012-11-22 13:55:00
8:15 AM,45.1,44.6,98,30.21,4.0,South,3.5,-,N/A,,Clear,170,2012-11-22 14:15:00
8:35 AM,47.5,45.7,93,30.21,5.0,South,3.5,-,N/A,,Clear,180,2012-11-22 14:35:00
8:55 AM,50.5,47.5,89,30.21,5.0,SSW,3.5,-,N/A,,Clear,200,2012-11-22 14:55:00
9:15 AM,52.9,48.6,85,30.21,7.0,SSW,3.5,-,N/A,,Clear,200,2012-11-22 15:15:00
9:35 AM,55.6,49.1,79,30.21,7.0,SSW,5.8,-,N/A,,Clear,210,2012-11-22 15:35:00
9:55 AM,56.8,49.1,75,30.21,10.0,South,4.6,-,N/A,,Clear,190,2012-11-22 15:55:00
10:15 AM,59.5,48.9,68,30.20,10.0,SW,6.9,-,N/A,,Clear,220,2012-11-22 16:15:00
10:35 AM,60.8,48.6,64,30.19,10.0,SW,10.4,-,N/A,,Clear,220,2012-11-22 16:35:00
10:55 AM,62.4,48.7,61,30.18,10.0,SSW,10.4,-,N/A,,Clear,210,2012-11-22 16:55:00
11:15 AM,63.9,48.2,57,30.17,10.0,SW,10.4,-,N/A,,Clear,220,2012-11-22 17:15:00
11:35 AM,64.2,46.9,53,30.16,10.0,SW,11.5,-,N/A,,Clear,220,2012-11-22 17:35:00
11:55 AM,65.7,46.6,50,30.15,10.0,SW,9.2,17.3,N/A,,Clear,230,2012-11-22 17:55:00
12:15 PM,66.4,46.0,48,30.14,10.0,SSW,10.4,-,N/A,,Clear,210,2012-11-22 18:15:00
12:35 PM,66.7,45.7,47,30.14,10.0,SW,6.9,-,N/A,,Clear,220,2012-11-22 18:35:00
12:55 PM,65.3,45.1,48,30.13,10.0,South,9.2,-,N/A,,Clear,190,2012-11-22 18:55:00
1:15 PM,66.4,46.0,48,30.13,10.0,SSW,8.1,-,N/A,,Clear,200,2012-11-22 19:15:00
1:35 PM,68.0,46.4,46,30.12,10.0,South,10.4,-,N/A,,Clear,190,2012-11-22 19:35:00
1:55 PM,68.4,43.2,40,30.11,10.0,SW,10.4,-,N/A,,Clear,220,2012-11-22 19:55:00
2:15 PM,67.5,42.6,41,30.10,10.0,SW,12.7,-,N/A,,Clear,220,2012-11-22 20:15:00
2:35 PM,66.9,41.4,39,30.10,10.0,SSW,11.5,-,N/A,,Clear,210,2012-11-22 20:35:00
2:55 PM,66.4,41.9,41,30.10,10.0,SW,9.2,-,N/A,,Clear,220,2012-11-22 20:55:00
3:15 PM,66.7,43.0,42,30.10,10.0,SSW,9.2,-,N/A,,Clear,210,2012-11-22 21:15:00
3:35 PM,66.2,42.8,43,30.09,10.0,SSW,9.2,-,N/A,,Clear,210,2012-11-22 21:35:00
3:55 PM,65.3,43.0,44,30.09,10.0,South,6.9,-,N/A,,Clear,190,2012-11-22 21:55:00
4:15 PM,63.9,42.4,46,30.09,10.0,SW,4.6,-,N/A,,Clear,220,2012-11-22 22:15:00
4:35 PM,63.5,42.1,46,30.09,10.0,South,3.5,-,N/A,,Clear,190,2012-11-22 22:35:00
4:55 PM,62.4,42.4,48,30.09,10.0,Calm,Calm,-,N/A,,Clear,0,2012-11-22 22:55:00
5:15 PM,59.7,43.0,54,30.08,10.0,South,4.6,-,N/A,,Clear,190,2012-11-22 23:15:00
5:35 PM,61.0,43.2,52,30.08,10.0,South,3.5,-,N/A,,Clear,170,2012-11-22 23:35:00
5:55 PM,59.4,43.3,55,30.07,10.0,South,5.8,-,N/A,,Clear,170,2012-11-22 23:55:00
6:15 PM,59.2,43.3,56,30.07,10.0,South,6.9,-,N/A,,Clear,180,2012-11-23 00:15:00
6:35 PM,59.9,43.2,54,30.08,10.0,SSW,6.9,-,N/A,,Clear,200,2012-11-23 00:35:00
6:55 PM,59.0,42.8,55,30.08,10.0,SSW,4.6,-,N/A,,Clear,200,2012-11-23 00:55:00
7:15 PM,55.8,42.4,61,30.08,10.0,SSW,5.8,-,N/A,,Clear,210,2012-11-23 01:15:00
7:35 PM,58.6,42.4,55,30.08,10.0,SSW,5.8,-,N/A,,Clear,200,2012-11-23 01:35:00
7:55 PM,57.7,42.3,56,30.07,10.0,SSW,5.8,-,N/A,,Clear,200,2012-11-23 01:55:00
8:15 PM,58.1,42.1,55,30.07,10.0,SSW,4.6,-,N/A,,Clear,200,2012-11-23 02:15:00
8:35 PM,56.7,41.9,58,30.07,10.0,SSW,4.6,-,N/A,,Clear,200,2012-11-23 02:35:00
8:55 PM,55.0,41.7,61,30.07,10.0,South,5.8,-,N/A,,Clear,190,2012-11-23 02:55:00
9:15 PM,55.4,41.7,60,30.07,10.0,SSW,6.9,-,N/A,,Clear,200,2012-11-23 03:15:00
9:35 PM,55.4,41.5,60,30.07,10.0,South,6.9,-,N/A,,Clear,190,2012-11-23 03:35:00
9:55 PM,55.4,41.5,60,30.08,10.0,SSW,6.9,-,N/A,,Clear,210,2012-11-23 03:55:00
10:15 PM,55.2,41.9,61,30.08,10.0,SSW,8.1,-,N/A,,Clear,210,2012-11-23 04:15:00
10:35 PM,55.9,41.9,59,30.09,10.0,SW,5.8,-,N/A,,Clear,220,2012-11-23 04:35:00
10:55 PM,54.9,41.9,62,30.09,10.0,SSW,4.6,-,N/A,,Mostly Cloudy,210,2012-11-23 04:55:00
11:15 PM,55.2,41.9,61,30.09,10.0,SSW,4.6,-,N/A,,Mostly Cloudy,210,2012-11-23 05:15:00
11:35 PM,52.7,42.3,68,30.09,10.0,WSW,5.8,-,N/A,,Clear,240,2012-11-23 05:35:00
11:55 PM,53.8,42.6,66,30.08,10.0,SW,6.9,-,N/A,,Clear,220,2012-11-23 05:55:00